Location: Star Dogged Moon Observatory
(29.7756°N, 82.0783°W)
Time: 17:44:08
(UTC-04:00)

Amateur Radio Satellites - All Passes

Search period start: 29 July 2016 17:14
Search period end: 30 July 2016 17:14
Location: Star Dogged Moon Observatory, 29.7756°N, 82.0783°W

Satellite Date Start Highest point End Downlink Frequencies (MHz)
Time Altitude Azimuth
NOAA 15 29 Jul 17:32:15 17:33:47 11° 65° (ENE) 17:35:19 137.62
SO-50 29 Jul 17:33:58 17:38:29 59° 61° (ENE) 17:42:51 436.795
KKS-1 29 Jul 17:35:13 17:39:39 61° 285° (WNW) 17:44:04 437.445
AO-7 29 Jul 17:36:15 17:43:25 32° 261° (W) 17:50:40 29.400- 29.500
RS-15 29 Jul 17:37:26 17:49:34 65° 249° (WSW) 18:01:23 29.354- 29.394
Cosmos 2499 29 Jul 17:46:22 17:53:31 27° 285° (WNW) 18:00:36 435.465 / 435.565
BRITE-PL 29 Jul 17:49:00 17:51:33 16° 70° (ENE) 17:54:06 437.365/2234.400
HORYU 2 29 Jul 17:50:54 17:55:22 84° 258° (WSW) 17:59:53 437.375
PHONESAT 2.4 29 Jul 17:59:56 18:01:40 14° 349° (N) 18:03:24 2401.200-2431.200
STARS 29 Jul 18:06:40 18:11:01 55° 285° (WNW) 18:15:20 437.465
PCSat 29 Jul 18:08:03 18:11:36 18° 105° (ESE) 18:15:10 145.827
LilacSat-2 29 Jul 18:08:13 18:10:06 13° 70° (ENE) 18:12:00 437.200
NOAA 18 29 Jul 18:16:05 18:20:36 26° 69° (ENE) 18:25:08 137.9125
CUBESAT XI-V 29 Jul 18:18:33 18:22:57 43° 99° (E) 18:27:21 437.345
BEESAT 3 29 Jul 18:18:51 18:22:45 82° 298° (WNW) 18:26:41 437.485
BEESAT 2 29 Jul 18:30:25 18:34:18 64° 115° (ESE) 18:38:14 435.950
MOZHAYETS 4 29 Jul 18:31:01 18:33:10 13° 292° (WNW) 18:35:18
Cubesat XI-IV 29 Jul 18:34:00 18:38:56 38° 72° (ENE) 18:43:53 437.490
GOMX 1 29 Jul 18:36:29 18:39:51 24° 72° (ENE) 18:43:19 467.674
CUTE-I 29 Jul 18:56:20 19:01:39 67° 75° (ENE) 19:06:59 437.470
NOAA 15 29 Jul 19:07:43 19:12:55 68° 258° (WSW) 19:18:08 137.62
BRITE-PL 29 Jul 19:26:18 19:29:49 27° 263° (W) 19:33:21 437.365/2234.400
O/OREOS (USA 219) 29 Jul 19:36:17 19:38:36 14° 100° (E) 19:40:56 437.305
PHONESAT 2.4 29 Jul 19:37:43 19:39:02 12° 6° (N) 19:40:20 2401.200-2431.200
LilacSat-2 29 Jul 19:40:40 19:44:04 30° 262° (W) 19:47:31 437.200
CINEMA 3 29 Jul 19:45:13 19:48:13 18° 69° (ENE) 19:51:19 145.822/145.860
PCSat 29 Jul 19:49:26 19:54:34 44° 298° (WNW) 19:59:45 145.827
DOVE 4 29 Jul 19:52:19 19:56:33 88° 88° (E) 20:01:02 437.250
NOAA 18 29 Jul 19:56:12 20:01:03 31° 262° (W) 20:05:55 137.9125
CUBESAT XI-V 29 Jul 19:57:38 19:59:54 14° 292° (WNW) 20:02:12 437.345
HO-68 29 Jul 20:05:35 20:12:12 41° 69° (ENE) 20:18:50 435.675
GOMX 1 29 Jul 20:15:01 20:17:54 18° 265° (W) 20:20:51 467.674
CANX-2 29 Jul 20:15:02 20:18:54 34° 74° (ENE) 20:22:47 2200.000
Cubesat XI-IV 29 Jul 20:15:11 20:19:02 20° 264° (W) 20:22:54 437.490
ISS 29 Jul 20:24:35 20:27:49 72° 315° (NW) 20:31:03 145.825
CUTE 1.7 + AOD 2 29 Jul 20:27:42 20:31:45 42° 75° (ENE) 20:35:47 437.475
CUBEBUG 2 29 Jul 20:33:38 20:36:39 18° 69° (ENE) 20:39:43 437.445
Cosmos 2491 29 Jul 20:34:40 20:39:09 15° 81° (E) 20:43:37 435.465 / 435.565
CUTE-I 29 Jul 20:40:48 20:42:01 11° 267° (W) 20:43:14 437.470
STRAND 1 29 Jul 20:54:02 20:59:08 75° 284° (WNW) 21:04:12 437.568
AIST 2 29 Jul 20:54:14 20:58:18 74° 297° (WNW) 21:02:25 435.215
SEEDS 29 Jul 21:01:29 21:05:43 80° 76° (ENE) 21:09:56 437.485
COMPASS 1 29 Jul 21:08:03 21:12:11 64° 77° (ENE) 21:16:19 437.405
YUBILEINY 29 Jul 21:10:20 21:18:51 51° 80° (E) 21:27:17 435.215
Cosmos 2504 29 Jul 21:12:17 21:14:22 11° 67° (ENE) 21:16:26 435.465 / 435.565
PHONESAT 2.4 29 Jul 21:13:25 21:16:10 28° 22° (NNE) 21:18:53 2401.200-2431.200
O/OREOS (USA 219) 29 Jul 21:13:30 21:17:36 36° 292° (WNW) 21:21:43 437.305
CINEMA 3 29 Jul 21:21:01 21:25:00 32° 263° (W) 21:29:12 145.822/145.860
FUNcube-1 29 Jul 21:32:18 21:36:18 32° 73° (ENE) 21:40:21 145.935
AAUSAT CUBESAT 2 29 Jul 21:33:30 21:37:40 77° 260° (W) 21:41:48 437.432
ZACube-1 29 Jul 21:34:41 21:38:49 37° 74° (ENE) 21:43:02 437.345
DELFI C3 29 Jul 21:34:53 21:36:40 13° 70° (ENE) 21:38:26 145.870
PRISM 29 Jul 21:35:11 21:38:53 32° 99° (E) 21:42:35 437.425
UWE-3 29 Jul 21:40:08 21:44:40 71° 75° (ENE) 21:49:18 435.000/436.395/437.385
CANX-2 29 Jul 21:52:34 21:54:47 14° 266° (W) 21:57:00 2200.000
HO-68 29 Jul 21:53:50 21:59:53 29° 262° (W) 22:05:59 435.675
CUTE 1.7 + AOD 2 29 Jul 22:06:30 22:07:42 11° 267° (W) 22:08:52 437.475
CUBEBUG 2 29 Jul 22:08:48 22:12:56 34° 263° (W) 22:17:11 437.445
Oscar 11 29 Jul 22:10:33 22:14:53 76° 259° (W) 22:19:14 145.826/435.025
HUMSAT D 29 Jul 22:24:43 22:28:19 26° 72° (ENE) 22:31:55 437.325/437.525
Cosmos 2491 29 Jul 22:26:08 22:34:51 80° 276° (W) 22:43:36 435.465 / 435.565
ANTELSAT 29 Jul 22:37:39 22:39:27 12° 93° (E) 22:41:14 437.575/2403.000
M-CUBED/EXP-1 PRIME 29 Jul 22:42:10 22:45:51 89° 57° (ENE) 22:49:52 437.505
PHONESAT 2.4 29 Jul 22:49:50 22:52:40 33° 216° (SW) 22:55:28 2401.200-2431.200
Cosmos 2504 29 Jul 23:00:57 23:08:53 89° 85° (E) 23:16:15 435.465 / 435.565
AUBIESAT-1 29 Jul 23:05:48 23:09:25 54° 255° (WSW) 23:13:24 437.475
DELFI C3 29 Jul 23:07:33 23:11:10 33° 262° (W) 23:14:46 145.870
YUBILEINY 29 Jul 23:08:05 23:15:04 27° 275° (W) 23:22:03 435.215
AO-85 29 Jul 23:09:26 23:13:31 47° 60° (ENE) 23:17:18 145.980
FUNcube-1 29 Jul 23:09:33 23:12:31 17° 265° (W) 23:15:32 145.935
PRISM 29 Jul 23:11:41 23:13:52 14° 291° (WNW) 23:16:02 437.425
ZACube-1 29 Jul 23:12:34 23:15:10 15° 266° (W) 23:17:47 437.345
TIGRISAT 29 Jul 23:16:22 23:20:33 35° 98° (E) 23:24:37 435.000
UNISAT 6 29 Jul 23:33:27 23:38:00 63° 101° (E) 23:42:23 437.425
50 SAT 29 Jul 23:43:19 23:45:33 16° 71° (ENE) 23:47:48 437.505
CUBEBUG 1 29 Jul 23:46:05 23:49:26 23° 71° (ENE) 23:52:49 437.445
ESTCUBE 1 29 Jul 23:47:44 23:51:54 39° 74° (ENE) 23:56:04 437.505/2401.250
JUGNU 29 Jul 23:52:12 23:56:00 17° 164° (SSE) 23:59:48 437.505
VELOX 1 29 Jul 23:52:33 23:56:02 24° 71° (ENE) 23:59:31 145.980
HUMSAT D 30 Jul 00:00:48 00:03:50 19° 264° (W) 00:06:53 437.325/437.525
NANOSAT C BR1 30 Jul 00:06:58 00:09:47 17° 95° (E) 00:12:34 145.865
DUCHIFAT 1 30 Jul 00:09:46 00:12:35 17° 95° (E) 00:15:22 145.980
ANTELSAT 30 Jul 00:11:59 00:16:19 43° 286° (WNW) 00:20:32 437.575/2403.000
DX 1 30 Jul 00:26:09 00:30:14 42° 74° (ENE) 00:34:20 434.975-435.025
QB50P1 30 Jul 00:30:10 00:34:07 36° 99° (E) 00:38:02 145.935-145.965
Cosmos 2491 30 Jul 00:30:58 00:32:54 11° 293° (WNW) 00:34:50 435.465 / 435.565
UKube-1 30 Jul 00:34:11 00:38:12 41° 74° (ENE) 00:42:14 .
AISAT 30 Jul 00:36:42 00:41:04 90° 270° (W) 00:45:29 437.250
POPSAT HIP 1 30 Jul 00:36:49 00:40:54 43° 99° (E) 00:44:57 437.405
AIST 1 30 Jul 00:50:42 00:54:53 44° 82° (E) 00:59:04
TIGRISAT 30 Jul 00:54:07 00:56:52 16° 291° (WNW) 00:59:33 435.000
QB50P2 30 Jul 00:58:22 01:02:40 88° 276° (W) 01:06:55 145.880/145.840
Cosmos 2504 30 Jul 00:59:22 01:00:52 11° 281° (WNW) 01:02:22 435.465 / 435.565
POLYITAN 1 30 Jul 01:01:00 01:05:18 86° 282° (WNW) 01:09:33 437.675
SPROUT 30 Jul 01:01:21 01:05:35 72° 77° (ENE) 01:09:52 437.525
50 SAT 30 Jul 01:16:05 01:18:58 22° 263° (W) 01:21:51 437.505
CUBEBUG 1 30 Jul 01:22:15 01:25:35 22° 263° (W) 01:28:55 437.445
ESTCUBE 1 30 Jul 01:26:33 01:28:47 14° 265° (W) 01:31:00 437.505/2401.250
VELOX 1 30 Jul 01:28:59 01:32:21 22° 263° (W) 01:35:45 145.980
JAS-2 30 Jul 01:36:11 01:41:38 58° 102° (ESE) 01:47:42 435.910
JUGNU 30 Jul 01:39:27 01:44:31 29° 173° (S) 01:49:34 437.505
NANOSAT C BR1 30 Jul 01:41:49 01:45:28 28° 287° (WNW) 01:49:04 145.865
DUCHIFAT 1 30 Jul 01:44:36 01:48:13 28° 288° (WNW) 01:51:50 145.980
TISAT 1 30 Jul 01:45:51 01:49:53 49° 75° (ENE) 01:53:58 437.305
BUGSAT 1 30 Jul 01:45:58 01:50:12 67° 283° (WNW) 01:54:24 437.445
Oscar 19 30 Jul 01:58:07 02:02:00 21° 96° (E) 02:05:52 437.125/150
BEESAT 30 Jul 01:59:59 02:01:49 12° 67° (ENE) 02:03:39 436.000
DX 1 30 Jul 02:05:11 02:06:33 11° 266° (W) 02:07:55 434.975-435.025
QB50P1 30 Jul 02:07:20 02:09:32 14° 291° (WNW) 02:11:41 145.935-145.965
UKube-1 30 Jul 02:12:48 02:14:21 12° 266° (W) 02:15:53 .
SRMSAT 30 Jul 02:14:40 02:18:32 18° 164° (SSE) 02:22:24 437.500
POPSAT HIP 1 30 Jul 02:14:44 02:16:14 12° 292° (WNW) 02:17:43 437.405
ITUPSAT 1 30 Jul 02:23:07 02:26:48 22° 70° (ENE) 02:30:29 437.325
AIST 1 30 Jul 02:31:47 02:31:59 10° 274° (W) 02:32:10
SWISSCUBE 30 Jul 03:13:16 03:18:03 84° 258° (WSW) 03:22:51 437.505
GONETS M04 30 Jul 03:14:54 03:23:44 75° 83° (E) 03:32:34
CUSAT 1 30 Jul 03:20:00 03:23:12 20° 97° (E) 03:25:54 437.405
JAS-2 30 Jul 03:23:30 03:26:21 14° 292° (WNW) 03:29:20 435.910
JUGNU 30 Jul 03:27:53 03:33:06 31° 183° (S) 03:38:18 437.505
BEESAT 30 Jul 03:34:25 03:39:05 53° 259° (W) 03:43:46 436.000
Oscar 19 30 Jul 03:36:40 03:41:17 34° 288° (WNW) 03:45:55 437.125/150
ITAMSAT 1 30 Jul 03:38:49 03:43:13 28° 98° (E) 03:47:36 435.822/435.867
Gurwin Techsat 1B 30 Jul 03:41:59 03:47:17 75° 284° (WNW) 03:52:34 435.225
Cosmos 2499 30 Jul 03:43:56 03:51:33 84° 83° (E) 03:58:40 435.465 / 435.565
MOZHAYETS 4 30 Jul 03:48:39 03:52:07 21° 70° (ENE) 03:55:35
AO-7 30 Jul 03:52:38 03:58:29 21° 96° (E) 04:04:16 29.400- 29.500
ITUPSAT 1 30 Jul 04:00:19 04:04:25 28° 262° (W) 04:08:32 437.325
SRMSAT 30 Jul 04:02:09 04:07:12 29° 173° (S) 04:12:14 437.500
DANDE 30 Jul 04:09:58 04:15:18 35° 97° (E) 04:19:25 436.750
BEESAT 3 30 Jul 04:19:04 04:22:57 58° 245° (WSW) 04:26:49 437.485
KKS-1 30 Jul 04:27:00 04:31:20 56° 75° (ENE) 04:35:41 437.445
BEESAT 2 30 Jul 04:31:27 04:35:28 88° 247° (WSW) 04:39:26 435.950
ISS 30 Jul 04:33:04 04:36:19 85° 47° (NE) 04:39:33 145.825
PCSat 30 Jul 04:43:13 04:48:19 41° 61° (ENE) 04:53:23 145.827
STARS 30 Jul 04:56:57 05:01:15 58° 75° (ENE) 05:05:35 437.465
CUSAT 1 30 Jul 05:02:44 05:04:59 14° 278° (W) 05:06:59 437.405
GONETS M04 30 Jul 05:14:24 05:19:31 17° 278° (W) 05:24:38
CUBESAT XI-V 30 Jul 05:16:38 05:20:06 21° 71° (ENE) 05:23:35 437.345
JUGNU 30 Jul 05:17:06 05:21:40 23° 193° (SSW) 05:26:12 437.505
ITAMSAT 1 30 Jul 05:18:18 05:22:31 26° 290° (WNW) 05:26:44 435.822/435.867
AIST 2 30 Jul 05:22:57 05:24:47 13° 53° (NE) 05:26:37 435.215
MOZHAYETS 4 30 Jul 05:25:08 05:29:04 27° 263° (W) 05:33:01
Cosmos 2499 30 Jul 05:41:37 05:43:24 11° 280° (W) 05:45:09 435.465 / 435.565
RS-15 30 Jul 05:41:42 05:51:23 35° 105° (ESE) 06:01:28 29.354- 29.394
AO-7 30 Jul 05:43:23 05:51:37 66° 290° (WNW) 05:59:48 29.400- 29.500
HORYU 2 30 Jul 05:48:16 05:52:10 29° 98° (E) 05:56:01 437.375
SRMSAT 30 Jul 05:50:47 05:55:56 31° 183° (S) 06:01:04 437.500
O/OREOS (USA 219) 30 Jul 05:52:22 05:53:50 11° 61° (ENE) 05:55:18 437.305
DANDE 30 Jul 05:54:16 05:57:48 17° 279° (W) 06:00:48 436.750
BRITE-PL 30 Jul 05:59:36 06:01:09 11° 94° (E) 06:02:44 437.365/2234.400
PCSat 30 Jul 06:27:33 06:31:20 20° 255° (WSW) 06:35:06 145.827
GOMX 1 30 Jul 06:43:52 06:47:05 16° 94° (E) 06:50:19 467.674
NOAA 18 30 Jul 06:44:42 06:48:25 18° 96° (E) 06:52:06 137.9125
CUBESAT XI-V 30 Jul 06:53:24 06:57:17 26° 263° (W) 07:01:09 437.345
Cubesat XI-IV 30 Jul 06:57:45 07:02:06 25° 97° (E) 07:06:26 437.490
AIST 2 30 Jul 06:59:28 07:03:27 46° 247° (WSW) 07:07:26 435.215
JUGNU 30 Jul 07:08:54 07:10:06 11° 200° (SSW) 07:11:18 437.505
LilacSat-2 30 Jul 07:19:36 07:23:15 42° 99° (E) 07:26:52 437.200
CUTE-I 30 Jul 07:19:45 07:24:49 44° 100° (E) 07:29:51 437.470
HORYU 2 30 Jul 07:25:23 07:28:27 18° 291° (WNW) 07:31:29 437.375
NOAA 15 30 Jul 07:28:52 07:34:08 77° 102° (ESE) 07:39:25 137.62
O/OREOS (USA 219) 30 Jul 07:29:04 07:33:29 51° 255° (WSW) 07:37:54 437.305
BRITE-PL 30 Jul 07:34:43 07:39:44 64° 284° (WNW) 07:45:07 437.365/2234.400
SRMSAT 30 Jul 07:40:10 07:44:37 22° 193° (SSW) 07:49:03 437.500
SO-50 30 Jul 07:41:36 07:46:29 81° 117° (ESE) 07:51:22 436.795
AO-7 30 Jul 07:42:10 07:42:48 10° 307° (NW) 07:43:26 29.400- 29.500
RS-15 30 Jul 07:52:05 08:03:07 56° 303° (WNW) 08:14:52 29.354- 29.394
DOVE 4 30 Jul 07:56:34 08:01:33 42° 98° (E) 08:06:34 437.250
STRAND 1 30 Jul 08:03:37 08:08:46 83° 78° (ENE) 08:13:56 437.568
GOMX 1 30 Jul 08:20:10 08:25:12 48° 285° (WNW) 08:30:26 467.674
CUTE 1.7 + AOD 2 30 Jul 08:20:47 08:22:12 11° 94° (E) 08:23:37 437.475
PRISM 30 Jul 08:21:29 08:22:24 11° 68° (ENE) 08:23:19 437.425
NOAA 18 30 Jul 08:23:57 08:29:10 44° 288° (WNW) 08:34:20 137.9125
Cubesat XI-IV 30 Jul 08:37:30 08:42:04 30° 290° (WNW) 08:46:38 437.490
Cosmos 2491 30 Jul 08:44:24 08:52:27 39° 78° (ENE) 09:00:29 435.465 / 435.565
SEEDS 30 Jul 08:52:11 08:55:17 20° 96° (E) 08:58:23 437.485
COMPASS 1 30 Jul 08:58:07 09:00:39 16° 95° (E) 09:03:09 437.405
CUTE-I 30 Jul 09:01:00 09:04:28 18° 293° (WNW) 09:07:54 437.470
CINEMA 3 30 Jul 09:20:59 09:26:01 85° 283° (WNW) 09:30:54 145.822/145.860
AAUSAT CUBESAT 2 30 Jul 09:22:15 09:25:39 25° 97° (E) 09:29:01 437.432
SO-50 30 Jul 09:26:34 09:27:29 10° 311° (NW) 09:28:23 436.795
HO-68 30 Jul 09:26:44 09:33:56 77° 104° (ESE) 09:41:06 435.675
ZACube-1 30 Jul 09:31:43 09:32:53 11° 92° (E) 09:34:02 437.345
DOVE 4 30 Jul 09:35:17 09:38:50 19° 291° (WNW) 09:42:26 437.250
UWE-3 30 Jul 09:36:48 09:40:22 23° 96° (E) 09:43:50 435.000/436.395/437.385
CANX-2 30 Jul 09:41:22 09:45:25 48° 285° (WNW) 09:49:27 2200.000
Cosmos 2504 30 Jul 09:42:36 09:46:11 13° 80° (E) 09:49:46 435.465 / 435.565
PRISM 30 Jul 09:53:25 09:57:16 42° 260° (W) 10:01:09 437.425
CUTE 1.7 + AOD 2 30 Jul 09:54:14 09:58:09 39° 285° (WNW) 10:02:02 437.475
YUBILEINY 30 Jul 10:03:01 10:11:41 70° 92° (E) 10:20:27 435.215
Oscar 11 30 Jul 10:04:07 10:07:55 30° 98° (E) 10:11:41 145.826/435.025
CUBEBUG 2 30 Jul 10:05:20 10:10:00 83° 102° (ESE) 10:14:29 437.445
TIGRISAT 30 Jul 10:09:57 10:12:50 17° 69° (ENE) 10:15:45 435.000
RS-15 30 Jul 10:13:25 10:19:07 14° 329° (NNW) 10:24:57 29.354- 29.394
UNISAT 6 30 Jul 10:26:21 10:30:15 27° 71° (ENE) 10:34:12 437.425
SEEDS 30 Jul 10:27:37 10:30:51 22° 288° (WNW) 10:34:05 437.485
M-CUBED/EXP-1 PRIME 30 Jul 10:28:41 10:30:59 13° 98° (E) 10:33:14 437.505
COMPASS 1 30 Jul 10:32:38 10:36:10 28° 287° (WNW) 10:39:41 437.405
Cosmos 2491 30 Jul 10:41:21 10:49:01 36° 273° (W) 10:56:45 435.465 / 435.565
DELFI C3 30 Jul 10:50:41 10:54:27 44° 99° (E) 10:58:14 145.870
AUBIESAT-1 30 Jul 10:50:47 10:54:09 20° 99° (E) 10:57:27 437.475
AAUSAT CUBESAT 2 30 Jul 10:58:06 11:00:54 18° 289° (WNW) 11:03:42 437.432
FUNcube-1 30 Jul 11:02:09 11:06:27 52° 285° (WNW) 11:10:37 145.935
ANTELSAT 30 Jul 11:03:51 11:08:27 77° 77° (ENE) 11:13:09 437.575/2403.000
ZACube-1 30 Jul 11:05:08 11:09:21 44° 285° (WNW) 11:13:27 437.345
UWE-3 30 Jul 11:13:05 11:16:40 23° 289° (WNW) 11:20:10 435.000/436.395/437.385
HO-68 30 Jul 11:16:46 11:20:49 16° 299° (WNW) 11:24:50 435.675
QB50P1 30 Jul 11:18:30 11:20:27 13° 69° (ENE) 11:22:25 145.935-145.965
POPSAT HIP 1 30 Jul 11:24:42 11:27:12 15° 69° (ENE) 11:29:43 437.405
Cosmos 2504 30 Jul 11:29:26 11:38:16 87° 96° (E) 11:47:11 435.465 / 435.565
Oscar 11 30 Jul 11:41:02 11:43:45 17° 290° (WNW) 11:46:27 145.826/435.025
TIGRISAT 30 Jul 11:44:55 11:49:09 36° 262° (W) 11:53:29 435.000
QB50P2 30 Jul 11:45:11 11:48:54 30° 73° (ENE) 11:52:39 145.880/145.840
JAS-2 30 Jul 11:46:51 11:48:31 11° 67° (ENE) 11:50:10 435.910
POLYITAN 1 30 Jul 11:47:47 11:51:31 31° 73° (ENE) 11:55:19 437.675
ESTCUBE 1 30 Jul 11:47:47 11:49:57 13° 94° (E) 11:52:08 437.505/2401.250
HUMSAT D 30 Jul 11:48:53 11:53:01 71° 284° (WNW) 11:57:05 437.325/437.525
M-CUBED/EXP-1 PRIME 30 Jul 12:01:06 12:05:37 47° 290° (WNW) 12:10:01 437.505
YUBILEINY 30 Jul 12:03:16 12:09:06 19° 288° (WNW) 12:14:59 435.215
UNISAT 6 30 Jul 12:03:20 12:06:51 21° 264° (W) 12:10:25 437.425
DX 1 30 Jul 12:22:11 12:23:59 12° 95° (E) 12:25:45 434.975-435.025
AUBIESAT-1 30 Jul 12:24:28 12:28:32 31° 292° (WNW) 12:32:31 437.475
NANOSAT C BR1 30 Jul 12:27:00 12:31:13 87° 260° (W) 12:35:29 145.865
DUCHIFAT 1 30 Jul 12:29:31 12:33:43 87° 258° (WSW) 12:37:59 145.980
UKube-1 30 Jul 12:29:34 12:30:49 11° 94° (E) 12:32:04 .
BUGSAT 1 30 Jul 12:29:48 12:33:29 34° 73° (ENE) 12:37:14 437.445
AISAT 30 Jul 12:33:14 12:37:03 27° 98° (E) 12:40:51 437.250
50 SAT 30 Jul 12:49:46 12:53:10 42° 99° (E) 12:56:35 437.505
QB50P1 30 Jul 12:51:53 12:55:50 38° 261° (W) 12:59:48 145.935-145.965
SPROUT 30 Jul 12:54:08 12:57:18 20° 96° (E) 13:00:27 437.525
POPSAT HIP 1 30 Jul 12:58:53 13:02:40 32° 262° (W) 13:06:29 437.405
Oscar 19 30 Jul 13:09:54 13:13:08 17° 68° (ENE) 13:16:23 437.125/150
AIST 1 30 Jul 13:13:51 13:17:40 34° 91° (E) 13:21:31
CUBEBUG 1 30 Jul 13:15:30 13:19:54 76° 283° (WNW) 13:24:18 437.445
AO-85 30 Jul 13:16:08 13:21:32 74° 115° (ESE) 13:26:47 145.980
QB50P2 30 Jul 13:22:06 13:24:41 16° 265° (W) 13:27:18 145.880/145.840
ESTCUBE 1 30 Jul 13:22:40 13:26:50 39° 286° (WNW) 13:31:01 437.505/2401.250
VELOX 1 30 Jul 13:23:45 13:28:12 73° 285° (WNW) 13:32:38 145.980
POLYITAN 1 30 Jul 13:24:48 13:27:19 15° 265° (W) 13:29:53 437.675
JAS-2 30 Jul 13:26:58 13:33:09 72° 258° (WSW) 13:38:41 435.910
Cosmos 2504 30 Jul 13:27:48 13:32:33 15° 290° (WNW) 13:37:18 435.465 / 435.565
TISAT 1 30 Jul 13:37:36 13:39:25 12° 94° (E) 13:41:15 437.305
DX 1 30 Jul 13:56:08 14:00:15 41° 286° (WNW) 14:04:22 434.975-435.025
UKube-1 30 Jul 14:02:53 14:06:59 44° 286° (WNW) 14:11:06 .
BUGSAT 1 30 Jul 14:07:08 14:08:56 13° 266° (W) 14:10:44 437.445
AISAT 30 Jul 14:10:04 14:13:17 20° 290° (WNW) 14:16:30 437.250
GONETS M04 30 Jul 14:16:37 14:21:01 15° 81° (E) 14:25:26
Cosmos 2499 30 Jul 14:25:13 14:27:42 11° 80° (E) 14:30:10 435.465 / 435.565
SPROUT 30 Jul 14:29:37 14:33:08 25° 288° (WNW) 14:36:39 437.525
AO-7 30 Jul 14:46:27 14:51:36 18° 58° (ENE) 14:56:44 29.400- 29.500
Oscar 19 30 Jul 14:47:15 14:52:04 42° 261° (W) 14:56:55 437.125/150
RS-15 30 Jul 14:49:50 14:59:42 27° 44° (NE) 15:09:23 29.354- 29.394
ITAMSAT 1 30 Jul 14:51:12 14:55:20 24° 69° (ENE) 14:59:28 435.822/435.867
AIST 1 30 Jul 14:53:27 14:55:20 13° 284° (WNW) 14:57:13
Gurwin Techsat 1B 30 Jul 14:56:51 15:02:10 85° 257° (WSW) 15:07:30 435.225
AO-85 30 Jul 14:59:55 15:02:27 13° 309° (NW) 15:04:56 145.980
TISAT 1 30 Jul 15:11:13 15:15:09 37° 286° (WNW) 15:19:03 437.305
PHONESAT 2.4 30 Jul 15:15:55 15:18:58 74° 147° (SSE) 15:22:01 2401.200-2431.200
SWISSCUBE 30 Jul 15:19:41 15:24:09 40° 100° (E) 15:28:35 437.505
CUSAT 1 30 Jul 15:37:47 15:41:17 50° 262° (W) 15:45:49 437.405
BEESAT 30 Jul 15:40:26 15:45:08 63° 101° (ESE) 15:49:49 436.000
ITUPSAT 1 30 Jul 16:06:03 16:10:47 67° 284° (WNW) 16:15:29 437.325
GONETS M04 30 Jul 16:08:02 16:16:41 80° 276° (W) 16:25:27
Cosmos 2499 30 Jul 16:10:38 16:19:32 81° 93° (E) 16:28:15 435.465 / 435.565
SO-50 30 Jul 16:20:34 16:23:10 15° 52° (NE) 16:25:43 436.795
KKS-1 30 Jul 16:24:58 16:27:59 18° 96° (E) 16:30:59 437.445
ITAMSAT 1 30 Jul 16:30:00 16:34:34 31° 262° (W) 16:39:10 435.822/435.867
AO-7 30 Jul 16:34:59 16:43:21 82° 253° (WSW) 16:51:47 29.400- 29.500
DANDE 30 Jul 16:36:29 16:38:58 25° 263° (W) 16:41:54 436.750
HORYU 2 30 Jul 16:41:53 16:44:11 14° 68° (ENE) 16:46:27 437.375
PHONESAT 2.4 30 Jul 16:53:22 16:55:41 19° 343° (NNW) 16:58:00 2401.200-2431.200
STARS 30 Jul 16:53:24 16:56:22 17° 96° (E) 16:59:19 437.465
SWISSCUBE 30 Jul 16:58:46 17:01:33 16° 292° (WNW) 17:04:20 437.505
